Time,TemperatureF,DewpointF,PressureIn,WindDirection,WindDirectionDegrees,WindSpeedMPH,WindSpeedGustMPH,Humidity,HourlyPrecipIn,Conditions,Clouds,dailyrainin,SoftwareType,DateUTC
2013-01-29 00:03:00,51.0,50.0,-100.00,SSW,210,2.0,6.0,97,0.00,,,-99.99,,2013-01-29 05:03:00,
2013-01-29 00:12:00,51.0,50.0,-100.00,WSW,245,2.0,4.0,97,0.00,,,-99.99,,2013-01-29 05:12:00,
2013-01-29 00:21:00,50.0,50.0,-100.00,South,190,2.0,6.0,97,0.00,,,-99.99,,2013-01-29 05:21:00,
2013-01-29 00:32:00,51.0,50.0,-100.00,SW,230,1.0,3.0,97,0.00,,,-99.99,,2013-01-29 05:32:00,
2013-01-29 00:42:00,50.0,49.0,-100.00,SSW,195,1.0,6.0,97,0.00,,,-99.99,,2013-01-29 05:42:00,
2013-01-29 00:52:00,50.0,50.0,-100.00,SW,235,2.0,4.0,97,0.00,,,-99.99,,2013-01-29 05:52:00,
2013-01-29 01:02:00,50.0,50.0,-100.00,SSW,200,2.0,3.0,97,0.55,,,-99.99,,2013-01-29 06:02:00,
2013-01-29 01:11:00,50.0,49.0,-100.00,SSW,210,1.0,3.0,97,0.55,,,-99.99,,2013-01-29 06:11:00,
2013-01-29 01:21:00,50.0,50.0,-100.00,SSW,205,2.0,4.0,98,0.00,,,-99.99,,2013-01-29 06:21:00,
2013-01-29 01:32:00,49.0,48.0,-100.00,SSW,205,1.0,5.0,97,0.55,,,-99.99,,2013-01-29 06:32:00,
2013-01-29 01:42:00,50.0,49.0,-100.00,SSW,205,2.0,4.0,98,0.55,,,-99.99,,2013-01-29 06:42:00,
2013-01-29 01:52:00,50.0,49.0,-100.00,SSW,205,2.0,3.0,98,0.55,,,-99.99,,2013-01-29 06:52:00,
2013-01-29 02:02:00,50.0,49.0,-100.00,SSW,200,2.0,3.0,98,0.00,,,-99.99,,2013-01-29 07:02:00,
2013-01-29 02:11:00,49.0,49.0,-100.00,SSW,205,2.0,3.0,98,0.55,,,-99.99,,2013-01-29 07:11:00,
2013-01-29 02:21:00,49.0,49.0,-100.00,SSW,205,2.0,4.0,98,0.55,,,-99.99,,2013-01-29 07:21:00,
2013-01-29 02:32:00,49.0,49.0,-100.00,SSW,200,2.0,4.0,98,0.55,,,-99.99,,2013-01-29 07:32:00,
2013-01-29 02:42:00,50.0,49.0,-100.00,SSW,195,1.0,3.0,98,0.55,,,-99.99,,2013-01-29 07:42:00,
2013-01-29 02:52:00,50.0,50.0,-100.00,SSW,200,1.0,4.0,98,0.00,,,-99.99,,2013-01-29 07:52:00,
2013-01-29 03:02:00,50.0,50.0,-100.00,SSW,195,2.0,3.0,98,0.00,,,-99.99,,2013-01-29 08:02:00,
2013-01-29 03:11:00,51.0,50.0,-100.00,WSW,240,2.0,3.0,98,0.00,,,-99.99,,2013-01-29 08:11:00,
2013-01-29 03:21:00,50.0,50.0,-100.00,WNW,285,1.0,6.0,98,0.00,,,-99.99,,2013-01-29 08:21:00,
2013-01-29 03:32:00,50.0,50.0,-100.00,West,275,2.0,6.0,98,0.00,,,-99.99,,2013-01-29 08:32:00,
2013-01-29 03:42:00,50.0,50.0,-100.00,SW,215,1.0,6.0,98,0.00,,,-99.99,,2013-01-29 08:42:00,
2013-01-29 03:52:00,50.0,49.0,-100.00,SSW,205,1.0,2.0,98,0.55,,,-99.99,,2013-01-29 08:52:00,
2013-01-29 04:02:00,49.0,49.0,-100.00,SW,235,1.0,6.0,98,0.55,,,-99.99,,2013-01-29 09:02:00,
2013-01-29 04:11:00,49.0,48.0,-100.00,South,185,1.0,6.0,98,0.55,,,-99.99,,2013-01-29 09:11:00,
2013-01-29 04:21:00,49.0,48.0,-100.00,SSW,195,2.0,3.0,98,0.55,,,-99.99,,2013-01-29 09:21:00,
2013-01-29 04:32:00,49.0,48.0,-100.00,South,185,2.0,3.0,98,0.55,,,-99.99,,2013-01-29 09:32:00,
2013-01-29 04:42:00,49.0,48.0,-100.00,South,185,2.0,3.0,98,0.55,,,-99.99,,2013-01-29 09:42:00,
2013-01-29 04:51:00,48.0,48.0,-100.00,South,185,1.0,3.0,98,0.55,,,-99.99,,2013-01-29 09:51:00,
2013-01-29 05:01:00,49.0,49.0,-100.00,SSW,195,3.0,4.0,98,0.55,,,-99.99,,2013-01-29 10:01:00,
2013-01-29 05:11:00,49.0,48.0,-100.00,SSW,195,3.0,4.0,98,0.55,,,-99.99,,2013-01-29 10:11:00,
2013-01-29 05:21:00,49.0,48.0,-100.00,South,190,3.0,4.0,98,0.55,,,-99.99,,2013-01-29 10:21:00,
2013-01-29 05:32:00,49.0,48.0,-100.00,South,190,3.0,4.0,98,0.55,,,-99.99,,2013-01-29 10:32:00,
2013-01-29 05:41:00,49.0,48.0,-100.00,South,190,2.0,5.0,98,0.55,,,-99.99,,2013-01-29 10:41:00,
2013-01-29 05:52:00,49.0,48.0,-100.00,South,190,2.0,5.0,98,0.55,,,-99.99,,2013-01-29 10:52:00,
2013-01-29 06:02:00,49.0,49.0,-100.00,SSW,195,3.0,3.0,99,0.55,,,-99.99,,2013-01-29 11:02:00,
2013-01-29 06:11:00,49.0,49.0,-100.00,SSW,195,3.0,4.0,99,0.55,,,-99.99,,2013-01-29 11:11:00,
2013-01-29 06:22:00,49.0,49.0,-100.00,SSW,195,3.0,4.0,99,0.00,,,-99.99,,2013-01-29 11:22:00,
2013-01-29 06:32:00,49.0,48.0,-100.00,SSW,195,3.0,4.0,99,0.00,,,-99.99,,2013-01-29 11:32:00,
2013-01-29 06:42:00,49.0,48.0,-100.00,South,190,2.0,4.0,99,0.00,,,-99.99,,2013-01-29 11:42:00,
2013-01-29 06:52:00,49.0,49.0,-100.00,South,190,4.0,6.0,99,0.00,,,-99.99,,2013-01-29 11:52:00,
2013-01-29 07:03:00,48.0,48.0,-100.00,SSW,200,4.0,6.0,99,0.00,,,-99.99,,2013-01-29 12:03:00,
2013-01-29 07:12:00,49.0,49.0,-100.00,SSW,200,4.0,6.0,99,0.00,,,-99.99,,2013-01-29 12:12:00,
2013-01-29 07:22:00,49.0,48.0,-100.00,SSW,195,4.0,6.0,99,0.00,,,-99.99,,2013-01-29 12:22:00,
2013-01-29 07:33:00,49.0,49.0,-100.00,SSW,205,4.0,6.0,99,0.00,,,-99.99,,2013-01-29 12:33:00,
2013-01-29 07:43:00,49.0,49.0,-100.00,SSW,205,2.0,6.0,99,0.00,,,-99.99,,2013-01-29 12:43:00,
2013-01-29 07:52:00,49.0,49.0,-100.00,SSW,200,4.0,6.0,99,0.00,,,-99.99,,2013-01-29 12:52:00,
2013-01-29 08:02:00,49.0,49.0,-100.00,SSW,200,4.0,6.0,98,0.00,,,-99.99,,2013-01-29 13:02:00,
2013-01-29 08:12:00,48.0,48.0,-100.00,SSW,200,4.0,6.0,98,0.00,,,-99.99,,2013-01-29 13:12:00,
2013-01-29 08:22:00,48.0,48.0,-100.00,SSW,200,6.0,7.0,98,0.00,,,-99.99,,2013-01-29 13:22:00,
2013-01-29 08:32:00,49.0,49.0,-100.00,SSW,200,6.0,8.0,98,0.00,,,-99.99,,2013-01-29 13:32:00,
2013-01-29 08:42:00,50.0,49.0,-100.00,SSW,200,4.0,8.0,98,0.00,,,-99.99,,2013-01-29 13:42:00,
2013-01-29 08:52:00,50.0,49.0,-100.00,SW,215,2.0,5.0,98,0.00,,,-99.99,,2013-01-29 13:52:00,
2013-01-29 09:02:00,50.0,50.0,-100.00,SSW,195,4.0,6.0,98,0.00,,,-99.99,,2013-01-29 14:02:00,
2013-01-29 09:12:00,50.0,50.0,-100.00,SSW,205,4.0,6.0,98,0.00,,,-99.99,,2013-01-29 14:12:00,
2013-01-29 09:22:00,51.0,50.0,-100.00,SSW,200,4.0,6.0,98,0.00,,,-99.99,,2013-01-29 14:22:00,
2013-01-29 09:33:00,51.0,51.0,-100.00,SSW,205,1.0,6.0,97,0.00,,,-99.99,,2013-01-29 14:33:00,
2013-01-29 09:43:00,51.0,51.0,-100.00,SSW,195,4.0,7.0,97,0.00,,,-99.99,,2013-01-29 14:43:00,
2013-01-29 09:52:00,52.0,51.0,-100.00,SSW,200,4.0,6.0,96,1.10,,,-99.99,,2013-01-29 14:52:00,
2013-01-29 10:02:00,53.0,51.0,-100.00,SSW,195,3.0,6.0,94,0.00,,,-99.99,,2013-01-29 15:02:00,
2013-01-29 10:12:00,54.0,51.0,-100.00,SSW,200,2.0,7.0,92,0.00,,,-99.99,,2013-01-29 15:12:00,
2013-01-29 10:22:00,54.0,51.0,-100.00,South,185,3.0,6.0,90,0.00,,,-99.99,,2013-01-29 15:22:00,
2013-01-29 10:33:00,54.0,51.0,-100.00,SSW,195,3.0,5.0,90,0.00,,,-99.99,,2013-01-29 15:33:00,
2013-01-29 10:43:00,55.0,52.0,-100.00,SSW,200,4.0,9.0,89,0.00,,,-99.99,,2013-01-29 15:43:00,
2013-01-29 10:53:00,55.0,52.0,-100.00,SSW,200,6.0,9.0,88,0.00,,,-99.99,,2013-01-29 15:53:00,
2013-01-29 11:03:00,56.0,52.0,-100.00,SSW,200,6.0,10.0,87,0.00,,,-99.99,,2013-01-29 16:03:00,
2013-01-29 11:12:00,56.0,52.0,-100.00,SSW,210,4.0,10.0,86,0.00,,,-99.99,,2013-01-29 16:12:00,
2013-01-29 11:23:00,57.0,52.0,-100.00,SSW,200,6.0,8.0,85,0.00,,,-99.99,,2013-01-29 16:23:00,
2013-01-29 11:32:00,57.0,53.0,-100.00,SSW,205,4.0,6.0,86,0.00,,,-99.99,,2013-01-29 16:32:00,
2013-01-29 11:43:00,57.0,53.0,-100.00,South,190,5.0,7.0,86,0.00,,,-99.99,,2013-01-29 16:43:00,
2013-01-29 11:52:00,57.0,53.0,-100.00,SSW,200,8.0,11.0,85,0.00,,,-99.99,,2013-01-29 16:52:00,
2013-01-29 12:03:00,58.0,53.0,-100.00,SSW,200,7.0,10.0,84,0.00,,,-99.99,,2013-01-29 17:03:00,
2013-01-29 12:12:00,59.0,54.0,-100.00,SSW,195,6.0,11.0,83,0.00,,,-99.99,,2013-01-29 17:12:00,
2013-01-29 12:22:00,59.0,54.0,-100.00,SSW,195,6.0,11.0,83,0.00,,,-99.99,,2013-01-29 17:22:00,
2013-01-29 12:33:00,61.0,54.0,-100.00,SSW,205,6.0,9.0,79,0.00,,,-99.99,,2013-01-29 17:33:00,
2013-01-29 12:42:00,61.0,54.0,-100.00,South,190,7.0,12.0,77,0.00,,,-99.99,,2013-01-29 17:42:00,
2013-01-29 12:52:00,61.0,54.0,-100.00,SSW,200,6.0,10.0,77,0.00,,,-99.99,,2013-01-29 17:52:00,
2013-01-29 13:04:00,62.0,55.0,-100.00,SSW,200,4.0,11.0,77,0.00,,,-99.99,,2013-01-29 18:04:00,
2013-01-29 13:12:00,62.0,55.0,-100.00,South,190,6.0,9.0,76,0.00,,,-99.99,,2013-01-29 18:12:00,
2013-01-29 13:22:00,62.0,55.0,-100.00,SSW,205,6.0,10.0,76,0.00,,,-99.99,,2013-01-29 18:22:00,
2013-01-29 13:33:00,63.0,55.0,-100.00,SSW,205,7.0,12.0,74,0.00,,,-99.99,,2013-01-29 18:33:00,
2013-01-29 13:42:00,63.0,55.0,-100.00,South,190,7.0,10.0,74,0.00,,,-99.99,,2013-01-29 18:42:00,
2013-01-29 13:52:00,63.0,54.0,-100.00,South,190,7.0,12.0,74,0.00,,,-99.99,,2013-01-29 18:52:00,
2013-01-29 14:03:00,63.0,55.0,-100.00,SSW,195,8.0,11.0,74,0.00,,,-99.99,,2013-01-29 19:03:00,
2013-01-29 14:12:00,63.0,54.0,-100.00,South,190,8.0,11.0,72,0.00,,,-99.99,,2013-01-29 19:12:00,
2013-01-29 14:22:00,63.0,54.0,-100.00,South,185,9.0,12.0,71,0.00,,,-99.99,,2013-01-29 19:22:00,
2013-01-29 14:32:00,64.0,55.0,-100.00,South,190,7.0,12.0,70,0.00,,,-99.99,,2013-01-29 19:32:00,
2013-01-29 14:42:00,64.0,54.0,-100.00,SSW,200,7.0,11.0,69,0.00,,,-99.99,,2013-01-29 19:42:00,
2013-01-29 14:52:00,64.0,54.0,-100.00,SSW,200,6.0,10.0,69,0.00,,,-99.99,,2013-01-29 19:52:00,
2013-01-29 15:03:00,65.0,54.0,-100.00,SSW,200,10.0,14.0,66,0.00,,,-99.99,,2013-01-29 20:03:00,
2013-01-29 15:12:00,65.0,53.0,-100.00,SSW,200,10.0,15.0,66,0.00,,,-99.99,,2013-01-29 20:12:00,
2013-01-29 15:22:00,65.0,54.0,-100.00,SSW,200,9.0,12.0,67,0.00,,,-99.99,,2013-01-29 20:22:00,
2013-01-29 15:33:00,66.0,54.0,-100.00,SSW,195,6.0,11.0,66,0.00,,,-99.99,,2013-01-29 20:33:00,
2013-01-29 15:42:00,66.0,54.0,-100.00,SSW,205,9.0,15.0,65,0.00,,,-99.99,,2013-01-29 20:42:00,
2013-01-29 15:53:00,66.0,54.0,-100.00,SSW,200,7.0,14.0,65,0.00,,,-99.99,,2013-01-29 20:53:00,
2013-01-29 16:03:00,66.0,53.0,-100.00,SSW,200,7.0,12.0,63,0.00,,,-99.99,,2013-01-29 21:03:00,
2013-01-29 16:12:00,66.0,54.0,-100.00,South,190,7.0,11.0,64,0.00,,,-99.99,,2013-01-29 21:12:00,
2013-01-29 16:22:00,66.0,53.0,-100.00,SSW,195,6.0,9.0,63,0.00,,,-99.99,,2013-01-29 21:22:00,
2013-01-29 16:33:00,66.0,54.0,-100.00,SSW,195,6.0,12.0,64,0.00,,,-99.99,,2013-01-29 21:33:00,
2013-01-29 16:42:00,66.0,54.0,-100.00,SSW,195,6.0,12.0,64,0.00,,,-99.99,,2013-01-29 21:42:00,
2013-01-29 16:52:00,66.0,53.0,-100.00,SSW,195,7.0,10.0,62,0.00,,,-99.99,,2013-01-29 21:52:00,
2013-01-29 17:03:00,66.0,53.0,-100.00,SSW,195,6.0,12.0,61,0.00,,,-99.99,,2013-01-29 22:03:00,
2013-01-29 17:12:00,66.0,52.0,-100.00,SSW,205,6.0,10.0,61,0.00,,,-99.99,,2013-01-29 22:12:00,
2013-01-29 17:22:00,65.0,52.0,-100.00,South,190,6.0,9.0,63,0.00,,,-99.99,,2013-01-29 22:22:00,
2013-01-29 17:33:00,64.0,52.0,-100.00,SSW,200,8.0,13.0,64,0.00,,,-99.99,,2013-01-29 22:33:00,
2013-01-29 17:42:00,64.0,51.0,-100.00,SSW,195,8.0,12.0,63,0.00,,,-99.99,,2013-01-29 22:42:00,
2013-01-29 17:52:00,64.0,51.0,-100.00,SSW,195,7.0,14.0,63,0.00,,,-99.99,,2013-01-29 22:52:00,
2013-01-29 18:02:00,64.0,51.0,-100.00,SSW,195,10.0,14.0,62,0.00,,,-99.99,,2013-01-29 23:02:00,
2013-01-29 18:12:00,63.0,51.0,-100.00,SSW,195,6.0,11.0,64,0.00,,,-99.99,,2013-01-29 23:12:00,
2013-01-29 18:22:00,64.0,51.0,-100.00,South,190,7.0,11.0,63,0.00,,,-99.99,,2013-01-29 23:22:00,
2013-01-29 18:33:00,62.0,51.0,-100.00,SSW,195,6.0,9.0,66,0.00,,,-99.99,,2013-01-29 23:33:00,
2013-01-29 18:42:00,62.0,51.0,-100.00,SSW,195,6.0,9.0,66,0.00,,,-99.99,,2013-01-29 23:42:00,
2013-01-29 18:52:00,61.0,50.0,-100.00,South,190,4.0,7.0,68,0.00,,,-99.99,,2013-01-29 23:52:00,
2013-01-29 19:03:00,60.0,50.0,-100.00,SSW,195,2.0,6.0,68,0.00,,,-99.99,,2013-01-30 00:03:00,
2013-01-29 19:12:00,61.0,50.0,-100.00,South,185,2.0,5.0,69,0.00,,,-99.99,,2013-01-30 00:12:00,
2013-01-29 19:22:00,61.0,51.0,-100.00,South,170,4.0,6.0,69,0.00,,,-99.99,,2013-01-30 00:22:00,
2013-01-29 19:32:00,60.0,51.0,-100.00,South,170,3.0,6.0,69,0.00,,,-99.99,,2013-01-30 00:32:00,
2013-01-29 19:42:00,60.0,51.0,-100.00,South,175,4.0,6.0,71,0.00,,,-99.99,,2013-01-30 00:42:00,
2013-01-29 19:52:00,60.0,51.0,-100.00,South,185,3.0,6.0,71,0.00,,,-99.99,,2013-01-30 00:52:00,
2013-01-29 20:02:00,60.0,51.0,-100.00,South,170,4.0,7.0,72,0.00,,,-99.99,,2013-01-30 01:02:00,
2013-01-29 20:12:00,60.0,51.0,-100.00,South,190,4.0,6.0,72,0.00,,,-99.99,,2013-01-30 01:12:00,
2013-01-29 20:22:00,60.0,51.0,-100.00,South,185,4.0,9.0,71,0.00,,,-99.99,,2013-01-30 01:22:00,
2013-01-29 20:32:00,60.0,51.0,-100.00,South,185,6.0,9.0,71,0.00,,,-99.99,,2013-01-30 01:32:00,
2013-01-29 20:42:00,60.0,51.0,-100.00,SSW,195,6.0,9.0,72,0.00,,,-99.99,,2013-01-30 01:42:00,
2013-01-29 20:52:00,60.0,51.0,-100.00,South,190,6.0,10.0,72,0.00,,,-99.99,,2013-01-30 01:52:00,
2013-01-29 21:02:00,60.0,51.0,-100.00,South,180,6.0,11.0,72,0.00,,,-99.99,,2013-01-30 02:02:00,
2013-01-29 21:12:00,60.0,51.0,-100.00,South,190,7.0,12.0,72,0.00,,,-99.99,,2013-01-30 02:12:00,
2013-01-29 21:22:00,61.0,51.0,-100.00,South,190,7.0,11.0,71,0.00,,,-99.99,,2013-01-30 02:22:00,
2013-01-29 21:33:00,61.0,52.0,-100.00,South,190,8.0,14.0,72,0.00,,,-99.99,,2013-01-30 02:33:00,
2013-01-29 21:42:00,61.0,52.0,-100.00,SSW,200,8.0,12.0,72,0.00,,,-99.99,,2013-01-30 02:42:00,
2013-01-29 21:52:00,61.0,52.0,-100.00,South,190,9.0,11.0,72,0.00,,,-99.99,,2013-01-30 02:52:00,
2013-01-29 22:03:00,61.0,52.0,-100.00,South,190,9.0,12.0,72,0.00,,,-99.99,,2013-01-30 03:03:00,
2013-01-29 22:12:00,61.0,52.0,-100.00,South,190,6.0,11.0,73,0.00,,,-99.99,,2013-01-30 03:12:00,
2013-01-29 22:22:00,61.0,52.0,-100.00,South,190,7.0,11.0,74,0.00,,,-99.99,,2013-01-30 03:22:00,
2013-01-29 22:32:00,61.0,52.0,-100.00,SSW,195,7.0,11.0,73,0.00,,,-99.99,,2013-01-30 03:32:00,
2013-01-29 22:42:00,61.0,53.0,-100.00,South,190,7.0,12.0,73,0.00,,,-99.99,,2013-01-30 03:42:00,
2013-01-29 22:52:00,61.0,53.0,-100.00,SSW,195,7.0,12.0,73,0.00,,,-99.99,,2013-01-30 03:52:00,
2013-01-29 23:02:00,62.0,53.0,-100.00,South,190,9.0,12.0,73,0.00,,,-99.99,,2013-01-30 04:02:00,
2013-01-29 23:12:00,62.0,53.0,-100.00,South,190,9.0,16.0,72,0.00,,,-99.99,,2013-01-30 04:12:00,
2013-01-29 23:22:00,62.0,54.0,-100.00,SSW,200,9.0,14.0,73,0.00,,,-99.99,,2013-01-30 04:22:00,
2013-01-29 23:32:00,62.0,54.0,-100.00,South,190,7.0,16.0,74,0.00,,,-99.99,,2013-01-30 04:32:00,
2013-01-29 23:41:00,63.0,54.0,-100.00,SSW,195,9.0,17.0,73,0.00,,,-99.99,,2013-01-30 04:41:00,
2013-01-29 23:52:00,63.0,54.0,-100.00,South,185,9.0,16.0,74,0.00,,,-99.99,,2013-01-30 04:52:00,